Regional Weather Roundup
Issued by NWS

Home | Current Version | Previous Version | Text Only | Print | Product List | Glossary On
Versions: 1 2 3 4 5 6 7 8 9 10 11 12 13 14 15 16 17 18 19 20 21 22 23 24 25 26 27 28 29 30 31 32 33 34 35 36 37 38 39 40 41 42 43 44 45 46 47 48 49 50
000
ASUS44 KJAN 291810
RWRMS

MISSISSIPPI HOURLY WEATHER ROUNDUP
NATIONAL WEATHER SERVICE JACKSON MS
100 PM CDT MON MAY 29 2017

NOTE: "FAIR: INDICATES FEW OR NO CLOUDS BELOW 12,000 FEET WITH NO
SIGNIFICANT WEATHER AND/OR OBSTRUCTIONS TO VISIBILITY.

MSZ001>002-007>008-010>013-018>021-025>028-034>036-291900-
NORTHWEST MISSISSIPPI

CITY           SKY/WX    TMP DP  RH WIND       PRES   REMARKS
BATESVILLE     MOCLDY    76  68  75 CALM      30.03F
CLARKSDALE       N/A     79  70  73 MISG      30.03F
CLEVELAND      CLOUDY    73  71  93 SW13      30.04F
GREENWOOD      PTSUNNY   79  67  66 SW9       30.03F
6HR MIN TEMP:  66; 6HR MAX TEMP:  79; 6HR PCP: TRACE;

GREENVILLE     CLOUDY   N/A N/A N/A MISG      30.04F
OLIVE BRANCH   PTSUNNY  N/A N/A N/A VRB5      30.02F
OXFORD         PTSUNNY   77  64  65 CALM      30.04F
TUNICA         PTCLDY    79  63  57 E5        30.03F
WINONA         FAIR      74  66  76 CALM      30.05S
$$

MSZ003>006-009-014>017-022>024-029>033-037>039-291900-
NORTHEAST MISSISSIPPI

CITY           SKY/WX    TMP DP  RH WIND       PRES   REMARKS
COLUMBUS AFB   PTSUNNY   80  71  73 W9        30.03S
CORINTH        CLOUDY    79  66  65 VRB5      30.01F
GOLDN TRIANGLE MOSUNNY   81  64  57 W7        30.00F
STARKVILLE     FAIR      79  64  61 W5        30.05F
TUPELO         CLOUDY    78  65  63 SW7       30.03F
6HR MIN TEMP:  71; 6HR MAX TEMP:  79;

$$

MSZ040-058-291900-
CENTRAL MISSISSIPPI

CITY           SKY/WX    TMP DP  RH WIND       PRES   REMARKS
JACKSON INTL   CLOUDY    75  66  73 NE5       30.03F
6HR MIN TEMP:  66; 6HR MAX TEMP:  75; 6HR PCP: TRACE;

JACKSON HAWKNS CLOUDY    76  65  68 W3        30.03F
6HR MIN TEMP:  66; 6HR MAX TEMP:  76; 6HR PCP: TRACE;

MADISON        FAIR      73  64  73 CALM      30.03F
MERIDIAN KEY   CLOUDY    83  67  58 MISG      30.03F
6HR MIN TEMP:  67; 6HR MAX TEMP:  83;

MERIDIAN NAS   CLOUDY    81  65  58 NW7       30.04F
6HR MIN TEMP:  68; 6HR MAX TEMP:  83;

VICKSBURG VKS  CLEAR     77  66  69 CALM      29.99F
$$

MSZ059>079-291900-
SOUTH MISSISSIPPI

CITY           SKY/WX    TMP DP  RH WIND       PRES   REMARKS
COLUMBIA       FAIR      79  68  69 CALM      30.06S
HATTIESBURG    CLOUDY    79  66  64 SE3       30.03F
6HR MIN TEMP:  68; 6HR MAX TEMP:  79; 6HR PCP: TRACE;

LAUREL         FAIR      79  66  65 N9        29.99F
MCCOMB         CLOUDY    75  66  73 S6        30.04R
6HR MIN TEMP:  65; 6HR MAX TEMP:  76; 6HR PCP:  0.02;

NATCHEZ        LGT RAIN  72  68  87 CALM      30.03F
6HR MIN TEMP:  66; 6HR MAX TEMP:  73; 6HR PCP: TRACE;

PINE BELT      CLOUDY    77  66  69 S6        30.05S
6HR MIN TEMP:  66; 6HR MAX TEMP:  79;

$$

MSZ080>082-291900-
COASTAL MISSISSIPPI

CITY           SKY/WX    TMP DP  RH WIND       PRES   REMARKS
BAY ST LOUIS   MOSUNNY   81  70  69 CALM      30.03F
BILOXI         CLOUDY    83  71  66 SW8       30.03F
6HR MIN TEMP:  73; 6HR MAX TEMP:  84; 6HR PCP:  0.03;

PASCAGOULA     PTSUNNY   86  66  51 SW8       30.03F
6HR MIN TEMP:  73; 6HR MAX TEMP:  86; 6HR PCP:  0.01;

GULFPORT       CLOUDY    82  69  64 VRB5      30.03F
6HR MIN TEMP:  72; 6HR MAX TEMP:  83; 6HR PCP: TRACE;

$$

LAZ007>009-015>016-023>026-291900-
NORTHEAST LOUISIANA

CITY           SKY/WX    TMP DP  RH WIND       PRES   REMARKS
BASTROP        FAIR      80  67  65 W7        30.04F
TALLULAH/VBURG CLOUDY    78  66  66 CALM      30.02F
6HR MIN TEMP:  66; 6HR MAX TEMP:  78;

VIDALIA        MOCLDY    74  67  79 CALM      30.02S
$$



USA.gov is the U.S. government's official web portal to all federal, state and local government web resources and services.